User: anonymous   Login
Location: Unspecified
(0.0000°N, 0.0000°E)
Time: 10:50:10
(UTC+00:00)
Language:

Transit 2A - Orbit

View from above orbital plane
View from above orbital plane
View from above satellite
View from above satellite

Ground track
Ground track

The orbit data is extracted from the following two-line orbital elements,

1    45U 60007A   17087.81403761 -.00000016 +00000-0 +23032-4 0  9997
2    45 066.6939 241.3476 0248259 092.0726 270.8822 14.33543699897216
Epoch (UTC): 28 March 2017 19:32:12
Eccentricity: 0.0248259
inclination: 66.6939°
perigee height: 602 km
apogee height: 957 km
right ascension of ascending node: 241.3476°
argument of perigee: 92.0726°
revolutions per day: 14.33543699
mean anomaly at epoch: 270.8822°
orbit number at epoch: 89721

The dashed part of the orbit path shows where the satellite is in the earth's shadow,  

DLR